Lander, WY

12:52 PM MST on January 21, 2017 (GMT -0700)
South Pass

Weather History for KFWZ - September, 2013

Change the Weather History Date:

Tuesday, September 24, 2013

  Actual Average (KLND) Record (KLND)
Temperature  
Mean Temperature 48 °F -  
Max Temperature 62 °F 68 °F 87 °F (2014)
Min Temperature 33 °F 41 °F 17 °F (2000)
Degree Days  
Heating Degree Days 18    
Moisture  
Dew Point 26 °F    
Average Humidity 45    
Maximum Humidity 87    
Minimum Humidity 19    
Precipitation  
Precipitation 0.00 in - - ()
Sea Level Pressure  
Sea Level Pressure 30.04 in    
Wind  
Wind Speed 13 mph (SW)    
Max Wind Speed 24 mph    
Max Gust Speed 37 mph    
Visibility 10 miles    
Events      
Averages and records for this station are not official NWS values.
T = Trace of Precipitation, MM = Missing Value Source: NWS Daily Summary

Daily Weather History Graph

Daily Weather History Graph

Search for Another Location

Airport or City:

Trip Planner

Search our weather history database for the weather conditions in past years. The results will help you decide how hot, cold, wet, or windy it might be!

Date:

Astronomy

Sep. 24, 2013 Rise Set
Actual Time 7:04 AM MDT 7:08 PM MDT
Civil Twilight 6:36 AM MDT 7:36 PM MDT
Nautical Twilight 6:04 AM MDT 8:09 PM MDT
Astronomical Twilight 5:30 AM MDT 8:42 PM MDT
Moon 10:22 PM MDT (9/24) 12:28 PM MDT (9/24)
Length of Visible Light 12h 59m
Length of Day
12h 03m
Waning Gibbous, 72% of the Moon is Illuminated
Sep 24
Waning Gibbous
Sep 26
Last Quarter
Oct 4
New
Oct 11
First Quarter
Oct 18
Full

Hourly Weather History & Observations

Time (MDT) Temp. Windchill Dew Point Humidity Pressure Visibility Wind Dir Wind Speed Gust Speed Precip Events Conditions
12:15 AM 44.6 °F 39.2 °F 23.0 °F 43% 30.13 in 10.0 mi WSW 10.4 mph - N/A   Clear
12:35 AM 44.6 °F 39.7 °F 23.0 °F 43% 30.12 in 10.0 mi WSW 9.2 mph - N/A   Clear
12:55 AM 42.8 °F 35.4 °F 23.0 °F 46% 30.12 in 10.0 mi WSW 15.0 mph - N/A   Clear
1:15 AM 42.8 °F 34.3 °F 23.0 °F 46% 30.12 in 10.0 mi WSW 19.6 mph 23.0 mph N/A   Clear
1:35 AM 42.8 °F 34.0 °F 24.8 °F 49% 30.12 in 10.0 mi WSW 20.7 mph 27.6 mph N/A   Clear
1:55 AM 42.8 °F 34.3 °F 26.6 °F 53% 30.13 in 10.0 mi WSW 19.6 mph 26.5 mph N/A   Clear
2:15 AM 42.8 °F 35.1 °F 26.6 °F 53% 30.14 in 10.0 mi West 16.1 mph 21.9 mph N/A   Clear
2:35 AM 41.0 °F 33.1 °F 26.6 °F 57% 30.14 in 10.0 mi West 15.0 mph - N/A   Clear
2:55 AM 41.0 °F 33.5 °F 26.6 °F 57% 30.14 in 10.0 mi WSW 13.8 mph - N/A   Clear
3:15 AM 41.0 °F 33.9 °F 26.6 °F 57% 30.14 in 10.0 mi WSW 12.7 mph - N/A   Clear
3:35 AM 37.4 °F 30.3 °F 26.6 °F 65% 30.14 in 10.0 mi West 10.4 mph - N/A   Clear
3:55 AM 39.2 °F 33.0 °F 26.6 °F 61% 30.15 in 10.0 mi West 9.2 mph - N/A   Clear
4:15 AM 39.2 °F 34.2 °F 28.4 °F 65% 30.14 in 10.0 mi West 6.9 mph - N/A   Clear
4:35 AM 39.2 °F 34.2 °F 28.4 °F 65% 30.14 in 10.0 mi West 6.9 mph - N/A   Clear
4:55 AM 39.2 °F 35.0 °F 28.4 °F 65% 30.14 in 10.0 mi West 5.8 mph - N/A   Clear
5:15 AM 41.0 °F 38.0 °F 28.4 °F 61% 30.14 in 10.0 mi West 4.6 mph - N/A   Clear
5:35 AM 41.0 °F 39.0 °F 28.4 °F 61% 30.14 in 10.0 mi West 3.5 mph - N/A   Clear
5:55 AM 41.0 °F 38.0 °F 30.2 °F 65% 30.14 in 10.0 mi West 4.6 mph - N/A   Clear
6:15 AM 33.8 °F 27.7 °F 28.4 °F 81% 30.14 in 10.0 mi WSW 6.9 mph - N/A   Clear
6:35 AM 33.8 °F 27.0 °F 30.2 °F 87% 30.14 in 10.0 mi WSW 8.1 mph - N/A   Clear
6:55 AM 33.8 °F 27.7 °F 28.4 °F 81% 30.14 in 10.0 mi West 6.9 mph - N/A   Clear
7:15 AM 35.6 °F 30.7 °F 28.4 °F 75% 30.14 in 10.0 mi West 5.8 mph - N/A   Clear
7:35 AM 35.6 °F 31.7 °F 30.2 °F 81% 30.14 in 10.0 mi West 4.6 mph - N/A   Clear
7:55 AM 39.2 °F 35.9 °F 30.2 °F 70% 30.14 in 10.0 mi West 4.6 mph - N/A   Clear
8:15 AM 41.0 °F 39.0 °F 30.2 °F 65% 30.14 in 10.0 mi West 3.5 mph - N/A   Clear
8:35 AM 42.8 °F 40.1 °F 30.2 °F 61% 30.14 in 10.0 mi West 4.6 mph - N/A   Clear
8:55 AM 44.6 °F 40.7 °F 30.2 °F 57% 30.14 in 10.0 mi WSW 6.9 mph - N/A   Clear
9:15 AM 44.6 °F 39.2 °F 30.2 °F 57% 30.14 in 10.0 mi WSW 10.4 mph - N/A   Clear
9:35 AM 46.4 °F 40.7 °F 30.2 °F 53% 30.14 in 10.0 mi WSW 12.7 mph 18.4 mph N/A   Clear
9:55 AM 46.4 °F 41.5 °F 32.0 °F 57% 30.13 in 10.0 mi SW 10.4 mph - N/A   Clear
10:15 AM 50.0 °F - 32.0 °F 50% 30.12 in 10.0 mi SW 10.4 mph 19.6 mph N/A   Clear
10:35 AM 50.0 °F - 30.2 °F 47% 30.12 in 10.0 mi SW 13.8 mph 20.7 mph N/A   Clear
10:55 AM 50.0 °F - 30.2 °F 47% 30.11 in 10.0 mi SSW 16.1 mph 24.2 mph N/A   Clear
11:15 AM 50.0 °F - 30.2 °F 47% 30.10 in 10.0 mi SW 17.3 mph 26.5 mph N/A   Clear
11:35 AM 51.8 °F - 28.4 °F 41% 30.09 in 10.0 mi SW 20.7 mph 26.5 mph N/A   Clear
11:55 AM 51.8 °F - 28.4 °F 41% 30.09 in 10.0 mi WSW 23.0 mph 32.2 mph N/A   Clear
12:15 PM 53.6 °F - 28.4 °F 38% 30.08 in 10.0 mi SW 17.3 mph 28.8 mph N/A   Clear
12:35 PM 53.6 °F - 26.6 °F 35% 30.08 in 10.0 mi SW 20.7 mph 28.8 mph N/A   Clear
12:55 PM 53.6 °F - 26.6 °F 35% 30.06 in 10.0 mi SW 18.4 mph 29.9 mph N/A   Clear
1:15 PM 55.4 °F - 26.6 °F 33% 30.05 in 10.0 mi SW 19.6 mph 26.5 mph N/A   Clear
1:35 PM 55.4 °F - 26.6 °F 33% 30.04 in 10.0 mi SW 20.7 mph 28.8 mph N/A   Clear
1:55 PM 57.2 °F - 24.8 °F 29% 30.03 in 10.0 mi WSW 23.0 mph 28.8 mph N/A   Clear
2:15 PM 57.2 °F - 24.8 °F 29% 30.02 in 10.0 mi WSW 18.4 mph 26.5 mph N/A   Clear
2:35 PM 59.0 °F - 23.0 °F 25% 30.02 in 10.0 mi SW 17.3 mph 29.9 mph N/A   Clear
2:55 PM 59.0 °F - 23.0 °F 25% 30.01 in 10.0 mi SSW 15.0 mph 26.5 mph N/A   Clear
3:15 PM 60.8 °F - 23.0 °F 23% 30.00 in 10.0 mi South 16.1 mph 25.3 mph N/A   Clear
3:35 PM 60.8 °F - 21.2 °F 22% 29.98 in 10.0 mi SSW 12.7 mph 34.5 mph N/A   Clear
3:55 PM 60.8 °F - 21.2 °F 22% 29.98 in 10.0 mi SSW 13.8 mph 36.8 mph N/A   Clear
4:15 PM 60.8 °F - 19.4 °F 20% 29.96 in 10.0 mi South 19.6 mph 29.9 mph N/A   Clear
4:35 PM 62.6 °F - 19.4 °F 19% 29.94 in 10.0 mi South 21.9 mph 31.1 mph N/A   Scattered Clouds
4:55 PM 60.8 °F - 19.4 °F 20% 29.94 in 10.0 mi South 21.9 mph 32.2 mph N/A   Mostly Cloudy
5:15 PM 60.8 °F - 21.2 °F 22% 29.94 in 10.0 mi South 20.7 mph 29.9 mph N/A   Mostly Cloudy
5:35 PM 60.8 °F - 21.2 °F 22% 29.93 in 10.0 mi South 24.2 mph 32.2 mph N/A   Overcast
5:55 PM 62.6 °F - 21.2 °F 20% 29.92 in 10.0 mi SSW 13.8 mph 26.5 mph N/A   Mostly Cloudy
6:15 PM 60.8 °F - 26.6 °F 27% 29.92 in 10.0 mi SSW 12.7 mph 24.2 mph N/A   Overcast
6:35 PM 59.0 °F - 24.8 °F 27% 29.91 in 10.0 mi South 20.7 mph 34.5 mph N/A   Mostly Cloudy
6:55 PM 57.2 °F - 24.8 °F 29% 29.90 in 10.0 mi South 18.4 mph 32.2 mph N/A   Scattered Clouds
7:15 PM 55.4 °F - 24.8 °F 31% 29.91 in 10.0 mi SSW 17.3 mph 28.8 mph N/A   Scattered Clouds
7:35 PM 53.6 °F - 26.6 °F 35% 29.91 in 10.0 mi SSW 13.8 mph 24.2 mph N/A   Scattered Clouds
7:55 PM 53.6 °F - 26.6 °F 35% 29.92 in 10.0 mi SSW 12.7 mph 25.3 mph N/A   Clear
8:15 PM 53.6 °F - 26.6 °F 35% 29.92 in 10.0 mi SSW 12.7 mph 16.1 mph N/A   Mostly Cloudy
8:35 PM 51.8 °F - 26.6 °F 38% 29.92 in 10.0 mi SSW 6.9 mph 16.1 mph N/A   Overcast
8:55 PM 53.6 °F - 21.2 °F 28% 29.91 in 10.0 mi South 8.1 mph - N/A   Mostly Cloudy
9:15 PM 51.8 °F - 23.0 °F 33% 29.92 in 10.0 mi SSW 8.1 mph - N/A   Scattered Clouds
9:35 PM 51.8 °F - 19.4 °F 28% 29.92 in 10.0 mi SSW 9.2 mph - N/A   Clear
9:55 PM 50.0 °F - 21.2 °F 32% 29.92 in 10.0 mi SW 9.2 mph - N/A   Clear
10:15 PM 48.2 °F - 26.6 °F 43% 29.91 in 10.0 mi SW 8.1 mph - N/A   Clear
10:35 PM 48.2 °F - 28.4 °F 46% 29.91 in 10.0 mi SW 8.1 mph - N/A   Scattered Clouds
10:55 PM 46.4 °F 41.9 °F 28.4 °F 50% 29.90 in 10.0 mi SW 9.2 mph - N/A   Scattered Clouds
11:15 PM 46.4 °F 41.5 °F 28.4 °F 50% 29.89 in 10.0 mi SW 10.4 mph - N/A   Scattered Clouds
11:35 PM 48.2 °F - 28.4 °F 46% 29.89 in 10.0 mi SW 10.4 mph - N/A   Overcast
11:55 PM 46.4 °F 42.4 °F 28.4 °F 50% 29.89 in 10.0 mi SW 8.1 mph - N/A   Mostly Cloudy